Time,TemperatureF,DewpointF,PressureIn,WindDirection,WindDirectionDegrees,WindSpeedMPH,WindSpeedGustMPH,Humidity,HourlyPrecipIn,Conditions,Clouds,dailyrainin,SolarRadiationWatts/m^2,SoftwareType,DateUTC
2013-01-23 00:02:00,30.0,9.0,-100.00,WSW,244,2.0,9.0,41,0.00,,,0.00,0.000000,,2013-01-23 07:02:00,
2013-01-23 00:33:00,27.0,10.0,-100.00,WSW,258,2.0,8.0,48,0.00,,,0.00,0.000000,,2013-01-23 07:33:00,
2013-01-23 00:43:00,27.0,10.0,-100.00,WSW,258,2.0,8.0,48,0.00,,,0.00,0.000000,,2013-01-23 07:43:00,
2013-01-23 00:53:00,27.0,10.0,-100.00,WSW,258,2.0,8.0,48,0.00,,,0.00,0.000000,,2013-01-23 07:53:00,
2013-01-23 01:02:00,27.0,10.0,-100.00,WSW,258,2.0,8.0,48,0.00,,,0.00,0.000000,,2013-01-23 08:02:00,
2013-01-23 01:33:00,26.0,9.0,-100.00,WSW,245,5.0,6.0,49,0.00,,,-99.99,0.000000,,2013-01-23 08:33:00,
2013-01-23 01:43:00,26.0,9.0,-100.00,WSW,245,5.0,6.0,49,0.00,,,-99.99,0.000000,,2013-01-23 08:43:00,
2013-01-23 01:53:00,26.0,9.0,-100.00,WSW,245,5.0,6.0,49,0.00,,,-99.99,0.000000,,2013-01-23 08:53:00,
2013-01-23 02:02:00,26.0,9.0,-100.00,WSW,245,5.0,6.0,49,0.00,,,-99.99,0.000000,,2013-01-23 09:02:00,
2013-01-23 02:23:00,28.0,10.0,-100.00,NNE,25,0.0,9.0,46,0.00,,,-99.99,0.000000,,2013-01-23 09:23:00,
2013-01-23 02:33:00,28.0,10.0,-100.00,NNE,25,0.0,9.0,46,0.00,,,-99.99,0.000000,,2013-01-23 09:33:00,
2013-01-23 02:43:00,28.0,10.0,-100.00,NNE,25,0.0,9.0,46,0.00,,,-99.99,0.000000,,2013-01-23 09:43:00,
2013-01-23 02:53:00,28.0,10.0,-100.00,NNE,25,0.0,9.0,46,0.00,,,-99.99,0.000000,,2013-01-23 09:53:00,
2013-01-23 03:02:00,28.0,10.0,-100.00,NNE,25,0.0,9.0,46,0.00,,,-99.99,0.000000,,2013-01-23 10:02:00,
2013-01-23 03:23:00,28.0,10.0,-100.00,SSE,165,1.0,8.0,46,0.00,,,-99.99,0.000000,,2013-01-23 10:23:00,
2013-01-23 03:33:00,28.0,10.0,-100.00,SSE,165,1.0,8.0,46,0.00,,,-99.99,0.000000,,2013-01-23 10:33:00,
2013-01-23 03:43:00,28.0,10.0,-100.00,SSE,165,1.0,8.0,46,0.00,,,-99.99,0.000000,,2013-01-23 10:43:00,
2013-01-23 03:53:00,28.0,10.0,-100.00,SSE,165,1.0,8.0,46,0.00,,,-99.99,0.000000,,2013-01-23 10:53:00,
2013-01-23 04:02:00,28.0,10.0,-100.00,SSE,165,1.0,8.0,46,0.00,,,-99.99,0.000000,,2013-01-23 11:02:00,
2013-01-23 04:23:00,29.0,10.0,-100.00,WNW,292,1.0,8.0,44,0.00,,,0.00,0.000000,,2013-01-23 11:23:00,
2013-01-23 04:34:00,29.0,10.0,-100.00,WNW,292,1.0,8.0,44,0.00,,,0.00,0.000000,,2013-01-23 11:34:00,
2013-01-23 04:43:00,29.0,10.0,-100.00,WNW,292,1.0,8.0,44,0.00,,,0.00,0.000000,,2013-01-23 11:43:00,
2013-01-23 04:53:00,29.0,10.0,-100.00,WNW,292,1.0,8.0,44,0.00,,,0.00,0.000000,,2013-01-23 11:53:00,
2013-01-23 05:02:00,29.0,10.0,-100.00,WNW,292,1.0,8.0,44,0.00,,,0.00,0.000000,,2013-01-23 12:02:00,
2013-01-23 05:03:00,27.0,9.0,-100.00,WSW,241,4.0,5.0,47,0.00,,,0.00,0.000000,,2013-01-23 12:03:00,
2013-01-23 05:23:00,27.0,9.0,-100.00,WSW,241,4.0,5.0,47,0.00,,,0.00,0.000000,,2013-01-23 12:23:00,
2013-01-23 05:33:00,27.0,9.0,-100.00,WSW,241,4.0,5.0,47,0.00,,,0.00,0.000000,,2013-01-23 12:33:00,
2013-01-23 05:43:00,27.0,9.0,-100.00,WSW,241,4.0,5.0,47,0.00,,,0.00,0.000000,,2013-01-23 12:43:00,
2013-01-23 05:53:00,27.0,9.0,-100.00,WSW,241,4.0,5.0,47,0.00,,,0.00,0.000000,,2013-01-23 12:53:00,
2013-01-23 06:23:00,28.0,11.0,-100.00,West,261,3.0,7.0,48,0.00,,,0.00,0.000000,,2013-01-23 13:23:00,
2013-01-23 06:33:00,28.0,11.0,-100.00,West,261,3.0,7.0,48,0.00,,,0.00,0.000000,,2013-01-23 13:33:00,
2013-01-23 06:43:00,28.0,11.0,-100.00,West,261,3.0,7.0,48,0.00,,,0.00,0.000000,,2013-01-23 13:43:00,
2013-01-23 06:53:00,28.0,11.0,-100.00,West,261,3.0,7.0,48,0.00,,,0.00,0.000000,,2013-01-23 13:53:00,
2013-01-23 07:02:00,28.0,11.0,-100.00,West,261,3.0,7.0,48,0.00,,,0.00,0.000000,,2013-01-23 14:02:00,
2013-01-23 07:23:00,28.0,10.0,-100.00,SW,225,6.0,8.0,46,0.00,,,0.00,0.000000,,2013-01-23 14:23:00,
2013-01-23 07:33:00,28.0,10.0,-100.00,SW,225,6.0,8.0,46,0.00,,,0.00,0.000000,,2013-01-23 14:33:00,
2013-01-23 07:43:00,28.0,10.0,-100.00,SW,225,6.0,8.0,46,0.00,,,0.00,0.000000,,2013-01-23 14:43:00,
2013-01-23 07:53:00,28.0,10.0,-100.00,SW,225,6.0,8.0,46,0.00,,,0.00,0.000000,,2013-01-23 14:53:00,
2013-01-23 08:02:00,28.0,10.0,-100.00,SW,225,6.0,8.0,46,0.00,,,0.00,0.000000,,2013-01-23 15:02:00,
2013-01-23 08:23:00,29.0,9.0,-100.00,ESE,122,0.0,10.0,42,0.00,,,0.00,0.000000,,2013-01-23 15:23:00,
2013-01-23 08:33:00,29.0,9.0,-100.00,ESE,122,0.0,10.0,42,0.00,,,0.00,0.000000,,2013-01-23 15:33:00,
2013-01-23 09:23:00,28.0,9.0,-100.00,SE,129,0.0,3.0,45,0.00,,,0.00,27.000000,,2013-01-23 16:23:00,
2013-01-23 09:33:00,28.0,9.0,-100.00,SE,129,0.0,3.0,45,0.00,,,0.00,27.000000,,2013-01-23 16:33:00,
2013-01-23 09:43:00,28.0,9.0,-100.00,SE,129,0.0,3.0,45,0.00,,,0.00,27.000000,,2013-01-23 16:43:00,
2013-01-23 09:53:00,28.0,9.0,-100.00,SE,129,0.0,3.0,45,0.00,,,0.00,27.000000,,2013-01-23 16:53:00,
2013-01-23 10:02:00,28.0,9.0,-100.00,SE,129,0.0,3.0,45,0.00,,,0.00,27.000000,,2013-01-23 17:02:00,
2013-01-23 10:03:00,29.0,11.0,-100.00,NNE,18,0.0,4.0,47,0.00,,,0.00,95.000000,,2013-01-23 17:03:00,
2013-01-23 10:23:00,29.0,11.0,-100.00,NNE,18,0.0,4.0,47,0.00,,,0.00,95.000000,,2013-01-23 17:23:00,
2013-01-23 10:34:00,29.0,11.0,-100.00,NNE,18,0.0,4.0,47,0.00,,,0.00,95.000000,,2013-01-23 17:34:00,
2013-01-23 10:43:00,29.0,11.0,-100.00,NNE,18,0.0,4.0,47,0.00,,,0.00,95.000000,,2013-01-23 17:43:00,
2013-01-23 10:53:00,29.0,11.0,-100.00,NNE,18,0.0,4.0,47,0.00,,,0.00,95.000000,,2013-01-23 17:53:00,
2013-01-23 11:33:00,34.0,13.0,-100.00,NE,41,0.0,5.0,41,0.00,,,0.00,233.000000,,2013-01-23 18:33:00,
2013-01-23 11:44:00,34.0,13.0,-100.00,NE,41,0.0,5.0,41,0.00,,,0.00,233.000000,,2013-01-23 18:44:00,
2013-01-23 11:53:00,34.0,13.0,-100.00,NE,41,0.0,5.0,41,0.00,,,0.00,233.000000,,2013-01-23 18:53:00,
2013-01-23 12:02:00,34.0,13.0,-100.00,NE,41,0.0,5.0,41,0.00,,,0.00,233.000000,,2013-01-23 19:02:00,
2013-01-23 12:33:00,32.0,11.0,-100.00,North,2,2.0,6.0,41,0.00,,,0.00,270.000000,,2013-01-23 19:33:00,
2013-01-23 12:43:00,32.0,11.0,-100.00,North,2,2.0,6.0,41,0.00,,,0.00,270.000000,,2013-01-23 19:43:00,
2013-01-23 12:53:00,32.0,11.0,-100.00,North,2,2.0,6.0,41,0.00,,,0.00,270.000000,,2013-01-23 19:53:00,
2013-01-23 13:02:00,32.0,11.0,-100.00,North,2,2.0,6.0,41,0.00,,,0.00,270.000000,,2013-01-23 20:02:00,
2013-01-23 13:33:00,35.0,13.0,-100.00,North,358,3.0,7.0,39,0.00,,,0.00,317.000000,,2013-01-23 20:33:00,
2013-01-23 13:43:00,35.0,13.0,-100.00,North,358,3.0,7.0,39,0.00,,,0.00,317.000000,,2013-01-23 20:43:00,
2013-01-23 13:53:00,35.0,13.0,-100.00,North,358,3.0,7.0,39,0.00,,,0.00,317.000000,,2013-01-23 20:53:00,
2013-01-23 14:02:00,35.0,13.0,-100.00,North,358,3.0,7.0,39,0.00,,,0.00,317.000000,,2013-01-23 21:02:00,
2013-01-23 14:23:00,37.0,15.0,-100.00,ESE,110,4.0,7.0,40,0.00,,,0.00,280.000000,,2013-01-23 21:23:00,
2013-01-23 14:33:00,37.0,15.0,-100.00,ESE,110,4.0,7.0,40,0.00,,,0.00,280.000000,,2013-01-23 21:33:00,
2013-01-23 14:43:00,37.0,15.0,-100.00,ESE,110,4.0,7.0,40,0.00,,,0.00,280.000000,,2013-01-23 21:43:00,
2013-01-23 14:53:00,37.0,15.0,-100.00,ESE,110,4.0,7.0,40,0.00,,,0.00,280.000000,,2013-01-23 21:53:00,
2013-01-23 15:02:00,37.0,15.0,-100.00,ESE,110,4.0,7.0,40,0.00,,,0.00,280.000000,,2013-01-23 22:02:00,
2013-01-23 15:23:00,40.0,11.0,-100.00,SSW,198,8.0,18.0,30,0.00,,,0.00,179.000000,,2013-01-23 22:23:00,
2013-01-23 15:33:00,40.0,11.0,-100.00,SSW,198,8.0,18.0,30,0.00,,,0.00,179.000000,,2013-01-23 22:33:00,
2013-01-23 16:33:00,43.0,11.0,-100.00,SSE,164,2.0,18.0,27,0.00,,,0.00,122.000000,,2013-01-23 23:33:00,
2013-01-23 16:43:00,43.0,11.0,-100.00,SSE,164,2.0,18.0,27,0.00,,,0.00,122.000000,,2013-01-23 23:43:00,
2013-01-23 16:53:00,43.0,11.0,-100.00,SSE,164,2.0,18.0,27,0.00,,,0.00,122.000000,,2013-01-23 23:53:00,
2013-01-23 17:02:00,43.0,11.0,-100.00,SSE,164,2.0,18.0,27,0.00,,,0.00,122.000000,,2013-01-24 00:02:00,
2013-01-23 17:33:00,37.0,13.0,-100.00,SE,146,6.0,7.0,36,0.00,,,0.00,44.000000,,2013-01-24 00:33:00,
2013-01-23 17:43:00,37.0,13.0,-100.00,SE,146,6.0,7.0,36,0.00,,,0.00,44.000000,,2013-01-24 00:43:00,
2013-01-23 17:53:00,37.0,13.0,-100.00,SE,146,6.0,7.0,36,0.00,,,0.00,44.000000,,2013-01-24 00:53:00,
2013-01-23 18:02:00,37.0,13.0,-100.00,SE,146,6.0,7.0,36,0.00,,,0.00,44.000000,,2013-01-24 01:02:00,
2013-01-23 18:33:00,41.0,12.0,-100.00,WNW,298,2.0,16.0,30,0.00,,,0.00,1.000000,,2013-01-24 01:33:00,
2013-01-23 19:33:00,37.0,14.0,-100.00,SE,137,11.0,18.0,38,-99.99,,,0.00,0.000000,,2013-01-24 02:33:00,
2013-01-23 19:42:00,37.0,14.0,-100.00,SE,137,11.0,18.0,38,-99.99,,,0.00,0.000000,,2013-01-24 02:42:00,
2013-01-23 19:52:00,37.0,14.0,-100.00,SE,137,11.0,18.0,38,-99.99,,,0.00,0.000000,,2013-01-24 02:52:00,
2013-01-23 20:02:00,37.0,14.0,-100.00,SE,137,11.0,18.0,38,-99.99,,,0.00,0.000000,,2013-01-24 03:02:00,
2013-01-23 20:33:00,37.0,13.0,-100.00,SE,144,12.0,16.0,36,0.00,,,0.00,0.000000,,2013-01-24 03:33:00,
2013-01-23 20:43:00,37.0,13.0,-100.00,SE,144,12.0,16.0,36,0.00,,,0.00,0.000000,,2013-01-24 03:43:00,
2013-01-23 20:52:00,37.0,13.0,-100.00,SE,144,12.0,16.0,36,0.00,,,0.00,0.000000,,2013-01-24 03:52:00,
2013-01-23 21:02:00,37.0,13.0,-100.00,SE,144,12.0,16.0,36,0.00,,,0.00,0.000000,,2013-01-24 04:02:00,
2013-01-23 21:03:00,38.0,13.0,-100.00,ESE,122,12.0,23.0,35,0.00,,,0.00,0.000000,,2013-01-24 04:03:00,
2013-01-23 21:33:00,38.0,13.0,-100.00,ESE,122,12.0,23.0,35,0.00,,,0.00,0.000000,,2013-01-24 04:33:00,
2013-01-23 21:43:00,38.0,13.0,-100.00,ESE,122,12.0,23.0,35,0.00,,,0.00,0.000000,,2013-01-24 04:43:00,
2013-01-23 21:53:00,38.0,13.0,-100.00,ESE,122,12.0,23.0,35,0.00,,,0.00,0.000000,,2013-01-24 04:53:00,
2013-01-23 22:33:00,38.0,13.0,-100.00,SSE,167,10.0,19.0,36,0.00,,,0.00,0.000000,,2013-01-24 05:33:00,
2013-01-23 22:43:00,38.0,13.0,-100.00,SSE,167,10.0,19.0,36,0.00,,,0.00,0.000000,,2013-01-24 05:43:00,
2013-01-23 22:53:00,38.0,13.0,-100.00,SSE,167,10.0,19.0,36,0.00,,,0.00,0.000000,,2013-01-24 05:53:00,
2013-01-23 23:02:00,38.0,13.0,-100.00,SSE,167,10.0,19.0,36,0.00,,,0.00,0.000000,,2013-01-24 06:02:00,
2013-01-23 23:32:00,37.0,16.0,-100.00,North,355,2.0,20.0,42,0.00,,,0.00,0.000000,,2013-01-24 06:32:00,
2013-01-23 23:42:00,37.0,16.0,-100.00,North,355,2.0,20.0,42,0.00,,,0.00,0.000000,,2013-01-24 06:42:00,
2013-01-23 23:52:00,37.0,16.0,-100.00,North,355,2.0,20.0,42,0.00,,,0.00,0.000000,,2013-01-24 06:52:00,